Regional Weather Roundup
Issued by NWS

Home | Current Version | Previous Version | Graphics & Text | Print | Product List | Glossary On
Versions: 1 2 3 4 5 6 7 8 9 10 11 12 13 14 15 16 17 18 19 20 21 22 23 24 25 26 27
000
ASUS45 KCYS 252010
RWRWY

WYOMING REGIONAL WEATHER ROUNDUP
NATIONAL WEATHER SERVICE CHEYENNE WY
200 PM MDT SUN SEP 25 2016

NOTE:  "FAIR" INDICATES FEW OR NO CLOUDS BELOW 12,000 FEET
WITH NO SIGNIFICANT WEATHER AND/OR OBSTRUCTIONS TO VISIBILITY.

WYZ001-252100-
YELLOWSTONE NATIONAL PARK

CITY           SKY/WX    TMP DP  RH WIND       PRES   REMARKS
LK YELLOWSTONE   N/A     52  32  46 VRB5      30.52F
W YELLOWSTONE  NOT AVBL

$$
WYZ002>013-054>058-071-098>099-252100-
NORTHERN WYOMING

CITY           SKY/WX    TMP DP  RH WIND       PRES   REMARKS
JACKSON        NOT AVBL
CODY           FAIR      59  37  44 SE13      30.38F
GREYBULL       FAIR      59  41  51 S6        30.39F
WORLAND        FAIR      59  39  47 VRB6      30.39F
SHERIDAN       FAIR      63  36  36 N6        30.36F
BUFFALO        FAIR      58  37  45 SE7       30.39F
GILLETTE       FAIR      58  33  39 W6G17     30.38F
HULETT         FAIR      57  32  38 NW13      30.38S
NEWCASTLE      FAIR      57  28  33 NW18      30.39F

$$
WYZ014>020-022>026-101>103-252100-
CENTRAL WYOMING

CITY           SKY/WX    TMP DP  RH WIND       PRES   REMARKS
BIG PINEY      FAIR      59  30  33 SW6       30.49F
PINEDALE       FAIR      59  27  29 NW15G21   30.49F
DUBOIS         FAIR      57  27  30 NW15G25   30.45F
LANDER         FAIR      59  38  45 VRB3      30.42F
RIVERTON       FAIR      57  39  51 VRB6      30.43F
CASPER         FAIR      59  38  45 SW10      30.41F
DOUGLAS        PTSUNNY   62  35  36 NW14      30.41F

$$
WYZ021-027>030-104>119-252100-
SOUTHERN WYOMING

CITY           SKY/WX    TMP DP  RH WIND       PRES   REMARKS
EVANSTON       FAIR      58  24  27 N9        30.53F
FORT BRIDGER   FAIR      60  30  31 NW6       30.54F
ROCK SPRINGS   FAIR      55  34  45 SW12      30.50F
DIXON          MOCLDY    57  34  41 W10       30.52S
RAWLINS        FAIR      56  34  43 W13       30.49F
SARATOGA       FAIR      55  30  38 W9G16     30.50S
LARAMIE        FAIR      54  29  38 VRB6      30.45F
CHEYENNE       FAIR      61  27  27 NW13G23   30.40F
TORRINGTON     PTSUNNY   65  32  29 NW13      30.36F
PINE BLUFFS    FAIR      63  30  29 NW12G22   30.39F

$$




USA.gov is the U.S. government's official web portal to all federal, state and local government web resources and services.